Time,TemperatureF,DewpointF,PressureIn,WindDirection,WindDirectionDegrees,WindSpeedMPH,WindSpeedGustMPH,Humidity,HourlyPrecipIn,Conditions,Clouds,dailyrainin,SoftwareType,DateUTC
2016-08-26 00:04:00,77.7,77.0,29.99,ENE,67,0.0,0.0,100,0.00,,,0.00,Rainwise IP-100,2016-08-26 04:04:00,
2016-08-26 00:09:00,77.9,78.0,29.99,SE,135,0.0,1.0,100,0.00,,,0.00,Rainwise IP-100,2016-08-26 04:09:00,
2016-08-26 00:14:00,77.9,78.0,29.99,NW,315,1.0,0.0,100,0.00,,,0.00,Rainwise IP-100,2016-08-26 04:14:00,
2016-08-26 00:19:00,78.2,78.0,29.99,NNW,337,0.0,2.0,100,0.00,,,0.00,Rainwise IP-100,2016-08-26 04:19:00,
2016-08-26 00:24:00,78.1,78.0,29.99,WNW,292,0.0,1.0,100,0.00,,,0.00,Rainwise IP-100,2016-08-26 04:24:00,
2016-08-26 00:29:00,77.9,78.0,30.00,NNW,337,0.0,2.0,100,0.00,,,0.00,Rainwise IP-100,2016-08-26 04:29:00,
2016-08-26 00:34:00,77.9,78.0,30.00,West,270,0.0,2.0,100,0.00,,,0.00,Rainwise IP-100,2016-08-26 04:34:00,
2016-08-26 00:39:00,77.9,78.0,29.99,North,360,0.0,2.0,100,0.00,,,0.00,Rainwise IP-100,2016-08-26 04:39:00,
2016-08-26 00:44:00,77.9,78.0,29.99,North,360,0.0,0.0,100,0.00,,,0.00,Rainwise IP-100,2016-08-26 04:44:00,
2016-08-26 00:49:00,77.8,77.0,29.99,North,360,0.0,0.0,100,0.00,,,0.00,Rainwise IP-100,2016-08-26 04:49:00,
2016-08-26 00:54:00,77.8,77.0,29.99,North,360,0.0,0.0,100,0.00,,,0.00,Rainwise IP-100,2016-08-26 04:54:00,
2016-08-26 00:59:00,77.8,77.0,29.98,North,360,0.0,0.0,100,0.00,,,0.00,Rainwise IP-100,2016-08-26 04:59:00,
2016-08-26 01:04:00,77.8,77.0,29.99,North,360,0.0,0.0,100,0.00,,,0.00,Rainwise IP-100,2016-08-26 05:04:00,
2016-08-26 01:09:00,77.8,77.0,29.99,North,360,0.0,0.0,100,0.00,,,0.00,Rainwise IP-100,2016-08-26 05:09:00,
2016-08-26 01:14:00,77.9,78.0,29.99,North,360,0.0,0.0,100,0.00,,,0.00,Rainwise IP-100,2016-08-26 05:14:00,
2016-08-26 01:19:00,78.0,78.0,29.98,North,360,0.0,0.0,100,0.00,,,0.00,Rainwise IP-100,2016-08-26 05:19:00,
2016-08-26 01:29:00,78.3,78.0,29.98,SE,135,0.0,2.0,100,0.00,,,0.00,Rainwise IP-100,2016-08-26 05:29:00,
2016-08-26 01:34:00,78.4,78.0,29.98,North,360,0.0,2.0,100,0.00,,,0.00,Rainwise IP-100,2016-08-26 05:34:00,
2016-08-26 01:44:00,78.5,78.0,29.98,ENE,67,0.0,2.0,100,0.00,,,0.00,Rainwise IP-100,2016-08-26 05:44:00,
2016-08-26 01:49:00,78.6,78.0,29.98,ENE,67,0.0,2.0,100,0.00,,,0.00,Rainwise IP-100,2016-08-26 05:49:00,
2016-08-26 01:54:00,78.7,78.0,29.98,ESE,112,1.0,2.0,100,0.00,,,0.00,Rainwise IP-100,2016-08-26 05:54:00,
2016-08-26 01:59:00,78.7,78.0,29.98,ESE,112,0.0,2.0,100,0.00,,,0.00,Rainwise IP-100,2016-08-26 05:59:00,
2016-08-26 02:04:00,78.7,78.0,29.98,ESE,112,0.0,2.0,100,0.00,,,0.00,Rainwise IP-100,2016-08-26 06:04:00,
2016-08-26 02:09:00,78.8,78.0,29.98,ESE,112,1.0,1.0,100,0.00,,,0.00,Rainwise IP-100,2016-08-26 06:09:00,
2016-08-26 02:14:00,78.9,79.0,29.98,ESE,112,1.0,2.0,100,0.00,,,0.00,Rainwise IP-100,2016-08-26 06:14:00,
2016-08-26 02:19:00,79.0,79.0,29.98,ESE,112,0.0,2.0,100,0.00,,,0.00,Rainwise IP-100,2016-08-26 06:19:00,
2016-08-26 02:24:00,79.0,79.0,29.97,ESE,112,0.0,0.0,100,0.00,,,0.00,Rainwise IP-100,2016-08-26 06:24:00,
2016-08-26 02:29:00,78.9,79.0,29.97,ESE,112,0.0,0.0,100,0.00,,,0.00,Rainwise IP-100,2016-08-26 06:29:00,
2016-08-26 02:34:00,78.8,78.0,29.98,East,90,0.0,2.0,100,0.00,,,0.00,Rainwise IP-100,2016-08-26 06:34:00,
2016-08-26 02:39:00,78.7,78.0,29.98,East,90,0.0,0.0,100,0.00,,,0.00,Rainwise IP-100,2016-08-26 06:39:00,
2016-08-26 02:44:00,78.7,78.0,29.97,NE,45,0.0,2.0,100,0.00,,,0.00,Rainwise IP-100,2016-08-26 06:44:00,
2016-08-26 02:49:00,78.8,78.0,29.97,NE,45,0.0,0.0,100,0.00,,,0.00,Rainwise IP-100,2016-08-26 06:49:00,
2016-08-26 02:54:00,78.7,78.0,29.97,NE,45,0.0,0.0,100,0.00,,,0.00,Rainwise IP-100,2016-08-26 06:54:00,
2016-08-26 02:59:00,78.5,78.0,29.96,NE,45,0.0,0.0,100,0.00,,,0.00,Rainwise IP-100,2016-08-26 06:59:00,
2016-08-26 03:04:00,78.4,78.0,29.96,NE,45,0.0,0.0,100,0.00,,,0.00,Rainwise IP-100,2016-08-26 07:04:00,
2016-08-26 03:09:00,78.3,78.0,29.96,NE,45,0.0,0.0,100,0.00,,,0.00,Rainwise IP-100,2016-08-26 07:09:00,
2016-08-26 03:14:00,78.2,78.0,29.96,NE,45,0.0,0.0,100,0.00,,,0.00,Rainwise IP-100,2016-08-26 07:14:00,
2016-08-26 03:19:00,78.2,78.0,29.96,NE,45,0.0,0.0,100,0.00,,,0.00,Rainwise IP-100,2016-08-26 07:19:00,
2016-08-26 03:24:00,78.2,78.0,29.96,NE,45,0.0,0.0,100,0.00,,,0.00,Rainwise IP-100,2016-08-26 07:24:00,
2016-08-26 03:29:00,77.9,78.0,29.96,NE,45,0.0,0.0,100,0.00,,,0.00,Rainwise IP-100,2016-08-26 07:29:00,
2016-08-26 03:34:00,77.9,78.0,29.96,NE,45,0.0,0.0,100,0.00,,,0.00,Rainwise IP-100,2016-08-26 07:34:00,
2016-08-26 03:39:00,77.9,78.0,29.96,NE,45,0.0,0.0,100,0.00,,,0.00,Rainwise IP-100,2016-08-26 07:39:00,
2016-08-26 03:44:00,77.9,78.0,29.96,NE,45,0.0,0.0,100,0.00,,,0.00,Rainwise IP-100,2016-08-26 07:44:00,
2016-08-26 03:49:00,77.9,78.0,29.96,NE,45,0.0,0.0,100,0.00,,,0.00,Rainwise IP-100,2016-08-26 07:49:00,
2016-08-26 03:54:00,77.9,78.0,29.96,NE,45,0.0,0.0,100,0.00,,,0.00,Rainwise IP-100,2016-08-26 07:54:00,
2016-08-26 03:59:00,77.9,78.0,29.96,NE,45,0.0,0.0,100,0.00,,,0.00,Rainwise IP-100,2016-08-26 07:59:00,
2016-08-26 04:04:00,77.8,77.0,29.96,NE,45,0.0,0.0,100,0.00,,,0.00,Rainwise IP-100,2016-08-26 08:04:00,
2016-08-26 04:09:00,77.7,77.0,29.96,NE,45,0.0,0.0,100,0.00,,,0.00,Rainwise IP-100,2016-08-26 08:09:00,
2016-08-26 04:14:00,77.6,77.0,29.96,NE,45,0.0,0.0,100,0.00,,,0.00,Rainwise IP-100,2016-08-26 08:14:00,
2016-08-26 04:19:00,77.6,77.0,29.96,NE,45,0.0,0.0,100,0.00,,,0.00,Rainwise IP-100,2016-08-26 08:19:00,
2016-08-26 04:24:00,77.6,77.0,29.96,NE,45,0.0,0.0,100,0.00,,,0.00,Rainwise IP-100,2016-08-26 08:24:00,
2016-08-26 04:34:00,77.4,77.0,29.96,NE,45,0.0,0.0,100,0.00,,,0.00,Rainwise IP-100,2016-08-26 08:34:00,
2016-08-26 04:39:00,77.4,77.0,29.96,NE,45,0.0,0.0,100,0.00,,,0.00,Rainwise IP-100,2016-08-26 08:39:00,
2016-08-26 04:44:00,77.5,77.0,29.96,NE,45,0.0,0.0,100,0.00,,,0.00,Rainwise IP-100,2016-08-26 08:44:00,
2016-08-26 04:49:00,77.7,77.0,29.97,NE,45,0.0,0.0,100,0.00,,,0.00,Rainwise IP-100,2016-08-26 08:49:00,
2016-08-26 04:54:00,77.6,77.0,29.97,NE,45,0.0,0.0,100,0.00,,,0.00,Rainwise IP-100,2016-08-26 08:54:00,
2016-08-26 05:04:00,77.6,77.0,29.97,NE,45,0.0,0.0,100,0.00,,,0.00,Rainwise IP-100,2016-08-26 09:04:00,
2016-08-26 05:09:00,77.5,77.0,29.97,NE,45,0.0,0.0,100,0.00,,,0.00,Rainwise IP-100,2016-08-26 09:09:00,
2016-08-26 05:14:00,77.4,77.0,29.97,NE,45,0.0,0.0,100,0.00,,,0.00,Rainwise IP-100,2016-08-26 09:14:00,
2016-08-26 05:19:00,77.3,77.0,29.96,NE,45,0.0,0.0,100,0.00,,,0.00,Rainwise IP-100,2016-08-26 09:19:00,
2016-08-26 05:24:00,77.3,77.0,29.97,NE,45,0.0,0.0,100,0.00,,,0.00,Rainwise IP-100,2016-08-26 09:24:00,
2016-08-26 05:34:00,77.2,77.0,29.97,NE,45,0.0,0.0,100,0.00,,,0.00,Rainwise IP-100,2016-08-26 09:34:00,
2016-08-26 05:39:00,77.2,77.0,29.97,NE,45,0.0,0.0,100,0.00,,,0.00,Rainwise IP-100,2016-08-26 09:39:00,
2016-08-26 05:44:00,77.2,77.0,29.98,NE,45,0.0,0.0,100,0.00,,,0.00,Rainwise IP-100,2016-08-26 09:44:00,
2016-08-26 05:49:00,77.1,77.0,29.98,NE,45,0.0,0.0,100,0.00,,,0.00,Rainwise IP-100,2016-08-26 09:49:00,
2016-08-26 05:54:00,76.9,76.0,29.98,NE,45,0.0,0.0,99,0.00,,,0.00,Rainwise IP-100,2016-08-26 09:54:00,
2016-08-26 05:59:00,77.1,77.0,29.98,NE,45,0.0,0.0,100,0.00,,,0.00,Rainwise IP-100,2016-08-26 09:59:00,
2016-08-26 06:04:00,77.2,77.0,29.98,NE,45,0.0,0.0,100,0.00,,,0.00,Rainwise IP-100,2016-08-26 10:04:00,
2016-08-26 06:09:00,77.6,77.0,29.98,NE,45,0.0,0.0,100,0.00,,,0.00,Rainwise IP-100,2016-08-26 10:09:00,
2016-08-26 06:14:00,77.8,77.0,29.99,South,180,0.0,2.0,100,0.00,,,0.00,Rainwise IP-100,2016-08-26 10:14:00,
2016-08-26 06:19:00,77.8,77.0,29.99,South,180,0.0,2.0,100,0.00,,,0.00,Rainwise IP-100,2016-08-26 10:19:00,
2016-08-26 06:24:00,77.1,77.0,29.99,ESE,112,2.0,3.0,100,0.00,,,0.00,Rainwise IP-100,2016-08-26 10:24:00,
2016-08-26 06:29:00,76.2,76.0,29.99,SE,135,2.0,6.0,99,0.00,,,0.00,Rainwise IP-100,2016-08-26 10:29:00,
2016-08-26 06:34:00,76.3,75.0,29.99,SE,135,0.0,5.0,97,0.00,,,0.00,Rainwise IP-100,2016-08-26 10:34:00,
2016-08-26 06:39:00,76.3,76.0,29.99,SE,135,0.0,2.0,99,0.00,,,0.00,Rainwise IP-100,2016-08-26 10:39:00,
2016-08-26 06:44:00,76.3,75.0,29.99,ESE,112,0.0,2.0,98,0.00,,,0.00,Rainwise IP-100,2016-08-26 10:44:00,
2016-08-26 06:49:00,76.3,75.0,29.99,ESE,112,0.0,2.0,98,0.00,,,0.00,Rainwise IP-100,2016-08-26 10:49:00,
2016-08-26 06:54:00,76.3,76.0,30.00,ESE,112,0.0,0.0,99,0.00,,,0.00,Rainwise IP-100,2016-08-26 10:54:00,
2016-08-26 06:59:00,76.2,75.0,30.00,ESE,112,0.0,2.0,98,0.00,,,0.00,Rainwise IP-100,2016-08-26 10:59:00,
2016-08-26 07:04:00,76.3,74.0,30.00,SE,135,0.0,3.0,95,0.00,,,0.00,Rainwise IP-100,2016-08-26 11:04:00,
2016-08-26 07:09:00,76.5,76.0,30.00,SE,135,0.0,1.0,99,0.00,,,0.00,Rainwise IP-100,2016-08-26 11:09:00,
2016-08-26 07:14:00,76.5,76.0,30.00,SE,135,0.0,2.0,98,0.00,,,0.00,Rainwise IP-100,2016-08-26 11:14:00,
2016-08-26 07:19:00,76.4,76.0,30.00,SE,135,0.0,0.0,98,0.00,,,0.00,Rainwise IP-100,2016-08-26 11:19:00,
2016-08-26 07:24:00,76.4,76.0,30.00,SE,135,0.0,0.0,99,0.00,,,0.00,Rainwise IP-100,2016-08-26 11:24:00,
2016-08-26 07:34:00,76.3,76.0,30.00,SE,135,0.0,0.0,99,0.00,,,0.00,Rainwise IP-100,2016-08-26 11:34:00,
2016-08-26 07:39:00,76.4,76.0,30.00,SE,135,0.0,1.0,99,0.00,,,0.00,Rainwise IP-100,2016-08-26 11:39:00,
2016-08-26 07:44:00,76.5,76.0,30.00,SE,135,0.0,0.0,99,0.00,,,0.00,Rainwise IP-100,2016-08-26 11:44:00,
2016-08-26 07:49:00,76.5,76.0,30.00,South,180,0.0,1.0,99,0.00,,,0.00,Rainwise IP-100,2016-08-26 11:49:00,
2016-08-26 07:54:00,76.6,76.0,30.00,South,180,0.0,2.0,99,0.00,,,0.00,Rainwise IP-100,2016-08-26 11:54:00,
2016-08-26 07:59:00,76.7,76.0,30.00,SE,135,0.0,1.0,99,0.00,,,0.00,Rainwise IP-100,2016-08-26 11:59:00,
2016-08-26 08:04:00,76.8,76.0,30.00,SE,135,0.0,0.0,99,0.00,,,0.00,Rainwise IP-100,2016-08-26 12:04:00,
2016-08-26 08:09:00,76.9,76.0,30.00,SE,135,0.0,2.0,99,0.00,,,0.00,Rainwise IP-100,2016-08-26 12:09:00,
2016-08-26 08:14:00,76.9,76.0,30.00,SE,135,0.0,0.0,99,0.00,,,0.00,Rainwise IP-100,2016-08-26 12:14:00,
2016-08-26 08:19:00,77.2,77.0,30.00,SE,135,0.0,0.0,100,0.00,,,0.00,Rainwise IP-100,2016-08-26 12:19:00,
2016-08-26 08:24:00,77.3,77.0,30.00,SE,135,0.0,0.0,100,0.00,,,0.00,Rainwise IP-100,2016-08-26 12:24:00,
2016-08-26 08:29:00,77.5,77.0,30.00,SE,135,0.0,0.0,100,0.00,,,0.00,Rainwise IP-100,2016-08-26 12:29:00,
2016-08-26 08:34:00,77.8,77.0,30.00,SE,135,0.0,0.0,100,0.00,,,0.00,Rainwise IP-100,2016-08-26 12:34:00,
2016-08-26 08:39:00,78.1,78.0,30.00,SE,135,0.0,0.0,100,0.00,,,0.00,Rainwise IP-100,2016-08-26 12:39:00,
2016-08-26 08:44:00,78.3,78.0,30.00,SE,135,0.0,0.0,100,0.00,,,0.00,Rainwise IP-100,2016-08-26 12:44:00,
2016-08-26 08:49:00,78.6,78.0,30.00,SE,135,0.0,0.0,100,0.00,,,0.00,Rainwise IP-100,2016-08-26 12:49:00,
2016-08-26 08:54:00,78.9,78.0,30.01,SE,135,0.0,0.0,99,0.00,,,0.00,Rainwise IP-100,2016-08-26 12:54:00,
2016-08-26 08:59:00,79.5,79.0,30.01,SE,135,0.0,0.0,100,0.00,,,0.00,Rainwise IP-100,2016-08-26 12:59:00,
2016-08-26 09:04:00,79.9,80.0,30.01,SE,135,0.0,0.0,100,0.00,,,0.00,Rainwise IP-100,2016-08-26 13:04:00,
2016-08-26 09:09:00,80.4,80.0,30.02,SE,135,0.0,0.0,100,0.00,,,0.00,Rainwise IP-100,2016-08-26 13:09:00,
2016-08-26 09:14:00,81.1,81.0,30.02,SE,135,0.0,0.0,100,0.00,,,0.00,Rainwise IP-100,2016-08-26 13:14:00,
2016-08-26 09:19:00,82.1,82.0,30.03,ESE,112,0.0,1.0,100,0.00,,,0.00,Rainwise IP-100,2016-08-26 13:19:00,
2016-08-26 09:24:00,83.1,80.0,30.03,West,270,2.0,2.0,93,0.00,,,0.00,Rainwise IP-100,2016-08-26 13:24:00,
2016-08-26 09:29:00,84.1,81.0,30.04,West,270,0.0,2.0,92,0.00,,,0.00,Rainwise IP-100,2016-08-26 13:29:00,
2016-08-26 09:34:00,85.1,81.0,30.04,West,270,0.0,0.0,89,0.00,,,0.00,Rainwise IP-100,2016-08-26 13:34:00,
2016-08-26 09:39:00,86.2,81.0,30.05,West,270,0.0,1.0,85,0.00,,,0.00,Rainwise IP-100,2016-08-26 13:39:00,
2016-08-26 09:44:00,86.5,81.0,30.05,WNW,292,0.0,2.0,84,0.00,,,0.00,Rainwise IP-100,2016-08-26 13:44:00,
2016-08-26 09:49:00,86.8,81.0,30.05,WNW,292,0.0,2.0,84,0.00,,,0.00,Rainwise IP-100,2016-08-26 13:49:00,
2016-08-26 09:54:00,86.8,80.0,30.05,East,90,0.0,2.0,83,0.00,,,0.00,Rainwise IP-100,2016-08-26 13:54:00,
2016-08-26 09:59:00,86.9,80.0,30.06,NE,45,0.0,2.0,81,0.00,,,0.00,Rainwise IP-100,2016-08-26 13:59:00,
2016-08-26 10:04:00,86.9,81.0,30.05,NNE,22,1.0,2.0,84,0.00,,,0.00,Rainwise IP-100,2016-08-26 14:04:00,